This is the latest recevied weather packets stored in our database for station/object K5NWZ. If no packets are shown the sender has not sent any weather packets the latest 10 day(s).
| Time | Temp. | Humidity | Pressure | Rain* | Wind** | Luminosity | Snow |
|---|---|---|---|---|---|---|---|
| 1787876757 | 31.11° C | 28% | 1028.7 hPa | 0 mm | - | 140 W/m² | - |
| 1787876456 | 31.11° C | 29% | 1028.9 hPa | 0 mm | - | 181 W/m² | - |
| 1787876155 | 30° C | 30% | 1028.9 hPa | 0 mm | - | 167 W/m² | - |
| 1787875851 | 30° C | 30% | 1028.9 hPa | 0 mm | - | 92 W/m² | - |
| 1787875550 | 30° C | 30% | 1028.9 hPa | 0 mm | - | 58 W/m² | - |
| 1787875244 | 30° C | 30% | 1029 hPa | 0 mm | - | 53 W/m² | - |
| 1787874943 | 30° C | 30% | 1029.6 hPa | 0 mm | - | 48 W/m² | - |
| 1787874638 | 30° C | 29% | 1029.4 hPa | 0 mm | - | 51 W/m² | - |
| 1787874337 | 30° C | 29% | 1029.3 hPa | 0 mm | - | 52 W/m² | - |
| 1787874031 | 30° C | 30% | 1029.1 hPa | 0 mm | - | 53 W/m² | - |
| 1787873731 | 30° C | 30% | 1029.3 hPa | 0 mm | - | 53 W/m² | - |
| 1787873426 | 30.56° C | 29% | 1029.1 hPa | 0 mm | - | 50 W/m² | - |
| 1787873121 | 30.56° C | 30% | 1029.1 hPa | 0 mm | - | 40 W/m² | - |
| 1787872821 | 30.56° C | 29% | 1029.1 hPa | 0 mm | - | 38 W/m² | - |
| 1787872517 | 31.11° C | 28% | 1029.3 hPa | 0 mm | - | 42 W/m² | - |
| 1787872212 | 32.22° C | 28% | 1029.1 hPa | 0 mm | - | 49 W/m² | - |
| 1787871911 | 32.22° C | 27% | 1029 hPa | 0 mm | - | 177 W/m² | - |
| 1787871606 | 32.22° C | 28% | 1029.1 hPa | 0 mm | - | 296 W/m² | - |
| 1787871301 | 32.22° C | 29% | 1029.1 hPa | 0 mm | - | 270 W/m² | - |
| 1787870995 | 32.22° C | 30% | 1029.4 hPa | 0 mm | - | 306 W/m² | - |
| 1787870695 | 31.67° C | 28% | 1029.3 hPa | 0 mm | - | 418 W/m² | - |
| 1787870390 | 32.22° C | 29% | 1029.4 hPa | 0 mm | - | 214 W/m² | - |
| 1787870086 | 31.67° C | 29% | 1029.4 hPa | 0 mm | - | 245 W/m² | - |
| 1787869784 | 31.67° C | 29% | 1029.7 hPa | 0 mm | - | 332 W/m² | - |
| 1787869479 | 33.33° C | 29% | 1029.5 hPa | 0 mm | - | 522 W/m² | - |
* Rain latest hour (hover to see other rain measurements)
** Current wind speed in m/s (hover to see current wind gust speed)